Location: Aubière
(45.7516°N, 3.1125°E)
Time: 15:48:35
(UTC+00:00)

Daily predictions for brighter satellites

Satellite Brightness Start Highest point End
(mag) Time Altitude Azimuth Time Altitude Azimuth Time Altitude Azimuth
Cosmos 2082 4.1 19:53:33 10° NNW 19:59:02 50° ENE 20:04:28 10° SE
Meteor 1-11 Rocket 3.9 19:54:29 10° N 20:00:29 72° ENE 20:06:24 10° SSE
Cosmos 2263 Rocket 3.4 19:57:06 10° N 20:01:58 29° NE 20:06:46 10° ESE
Cosmos 1470 Rocket 3.6 19:58:28 10° N 20:02:48 66° E 20:07:04 10° SSE
Cosmos 1656 4.5 19:57:39 10° SW 20:03:07 57° WNW 20:08:33 10° NNE
Cosmos 1743 3.1 20:02:19 10° N 20:06:00 47° ENE 20:09:39 10° SSE
Ariane Rocket 3.3 20:01:07 10° SSE 20:06:03 55° ENE 20:11:02 10° N
BREEZE-M DEB (TANK) 2.8 20:07:28 10° W 20:10:38 51° NNW 20:12:46 10° ENE
SPOT 5 4.3 20:07:03 10° ESE 20:11:20 26° ENE 20:15:33 10° N
IRAS Rocket 4.4 20:06:56 10° NNE 20:12:31 60° ESE 20:18:04 10° S
Terra 3.6 20:09:57 10° ESE 20:13:06 18° ENE 20:16:14 10° NNE
Resurs 01 Rocket 1.6 20:10:21 10° SSE 20:14:45 83° ENE 20:19:11 10° NNW
Aureole 1 Rocket 2.1 20:13:01 10° SSW 20:16:13 66° ESE 20:19:11 10° NNE
Cosmos 1515 Rocket 3.5 20:12:44 10° S 20:17:04 69° E 20:21:27 10° NNE
Cosmos 2227 Rocket 2.8 20:14:40 10° NNW 20:20:14 57° WSW 20:25:45 10° S
Landsat 7 4.4 20:15:37 10° S 20:20:16 58° W 20:24:56 10° NNW
Cosmos 921 Rocket 3.4 20:17:05 10° N 20:21:32 54° ENE 20:25:38 12° SE
PSLV R/B 4.1 20:18:54 10° N 20:22:57 77° WNW 20:26:58 10° SSW
Cosmos 1980 Rocket 2.2 20:23:26 10° S 20:28:57 60° ESE 20:34:31 10° NNE
CARTOSAT-1 3.8 20:26:14 11° SSE 20:30:14 56° ENE 20:34:28 10° N
Cosmos 1869 Rocket 4.3 20:26:51 10° N 20:31:05 39° ENE 20:34:33 14° SE
Cosmos 2228 Rocket 4.0 20:29:01 11° SSE 20:32:49 33° E 20:36:54 10° NNE
Cosmos 1464 Rocket 4.0 20:27:36 10° S 20:33:48 82° E 20:40:00 10° N
Cosmos 1378 4.5 20:34:31 15° SE 20:36:26 22° E 20:39:20 10° NE
ARGOS Delta rocket 4.3 20:31:16 10° N 20:36:48 81° WNW 20:42:11 10° SSW
Cosmos 2344 3.5 20:29:31 10° SSW 20:37:02 74° SE 20:44:38 10° NE
Cosmos 2322 Rocket 3.9 20:36:17 12° ESE 20:38:02 14° E 20:40:40 10° ENE
ISS -3.0 20:35:07 10° WNW 20:38:23 48° NNE 20:41:27 11° E
Cosmos 2369 3.7 20:32:58 10° SSW 20:38:37 81° ESE 20:44:18 10° NNE
Cosmos 1354 Rocket 4.0 20:34:18 10° S 20:39:29 64° ESE 20:44:45 10° NNE
Spot 2 Rocket 4.0 20:35:42 14° SE 20:39:46 45° ENE 20:44:34 10° N
SPOT 3 Rocket 3.6 20:36:10 12° SSE 20:40:54 72° ENE 20:46:03 10° N
Cosmos 773 Rocket 4.2 20:36:00 10° NNW 20:41:12 62° ENE 20:45:19 16° SE
Cosmos 1536 3.5 20:37:39 10° NNW 20:41:36 55° W 20:45:32 10° S
ATLAS 2AS CENTAUR R/B 3.0 20:34:07 10° SSW 20:41:43 58° ESE 20:49:07 10° NE
Okean 1 3.4 20:40:11 10° S 20:44:04 57° E 20:48:01 10° NNE
Meteor 1-19 Rocket 4.2 20:40:48 10° S 20:46:08 61° E 20:51:28 10° NNE
H-2A R/B 3.7 20:42:45 10° N 20:46:29 34° WNW 20:50:12 10° SW
NOSS 3-4 (A) 4.3 20:41:00 10° WSW 20:46:36 53° NW 20:52:43 10° NNE
NOSS 3-4 (C) 4.2 20:41:02 10° WSW 20:46:40 53° NW 20:52:47 10° NNE
Cosmos 1092 Rocket 4.4 20:41:26 10° N 20:47:25 49° ENE 20:52:05 16° SE
RESURS DK-1 2.6 20:43:51 10° S 20:47:49 48° ESE 20:51:48 10° NE
Cosmos 1697 Rocket 3.6 20:42:20 10° SW 20:47:52 54° WNW 20:53:27 10° NNE
Nadezhda 4 Rocket 4.0 20:42:03 10° N 20:48:19 84° E 20:54:08 12° S
USA 245 4.5 20:42:54 12° SSE 20:48:21 81° ENE 20:54:46 10° N
SL-4 R/B 3.2 20:45:11 10° WNW 20:49:19 34° SW 20:52:09 16° SSE
Meteor 2-14 Rocket 4.4 20:45:10 10° N 20:51:16 76° E 20:56:34 14° SSE
ATLAS CENTAUR R/B 4.2 20:53:34 10° N 20:56:17 15° NNE 20:58:58 10° ENE
ARIANE 5 R/B 3.7 20:53:39 17° ESE 20:56:23 32° ENE 21:00:23 10° N
Cosmos 1707 Rocket 4.5 20:54:13 19° SE 20:56:32 31° E 21:00:26 10° NNE
Cosmos 2297 Rocket 4.4 20:52:34 10° NW 20:56:33 20° W 21:00:30 10° SW
MetOp-B 4.4 20:52:35 11° S 20:57:47 67° WSW 21:03:09 10° NNW
Cosmos 44 Rocket 3.7 20:53:39 10° NNW 20:58:15 50° NE 21:01:28 19° ESE
Cosmos 1184 Rocket 4.3 21:00:44 10° SW 21:03:29 32° WNW 21:06:15 10° N
Cosmos 158 Rocket 4.2 21:00:58 10° NNW 21:06:02 60° ENE 21:09:24 22° SE
ATLAS 3B R/B 3.4 21:00:06 10° NNW 21:07:15 53° NE 21:13:24 15° ESE
Meteor 2-9 Rocket 4.3 21:01:48 10° NNW 21:07:36 84° W 21:12:06 16° S
NOSS 2-1 (E) 3.8 21:08:10 26° ESE 21:08:10 26° ESE 21:10:48 10° ENE
Cosmos 1975 3.0 21:07:30 10° N 21:11:31 56° ENE 21:13:33 27° SSE
Timation 2 Rocket 4.4 21:05:20 10° NNW 21:11:50 63° WSW 21:17:06 17° S
USA 81 4.4 21:09:01 21° SSE 21:12:12 46° E 21:17:14 10° NNE
Cosmos 2026 Rocket 4.1 21:06:36 10° N 21:12:45 65° E 21:17:00 21° SSE
Cosmos 389 Rocket 4.5 21:09:52 10° NW 21:12:47 25° W 21:15:42 10° SSW
ERS-1 Rocket 2.9 21:12:32 22° SSE 21:15:52 80° ENE 21:20:55 10° NNW
SL-16 R/B 2.7 21:13:28 20° SSE 21:16:48 39° ESE 21:22:02 10° NE
CZ-4B R/B 4.2 21:14:56 10° NNW 21:17:03 16° WNW 21:19:07 10° WSW
Meteor 1-4 Rocket 4.3 21:16:09 10° NNE 21:18:42 19° ENE 21:19:36 17° E
Cosmos 1538 Rocket 4.3 21:16:14 10° NNW 21:21:25 58° ENE 21:24:18 25° SE
Helios 1A Rocket 3.2 21:19:01 21° S 21:21:32 61° WSW 21:25:30 10° NNW
GENESIS II 4.3 21:20:46 21° S 21:23:03 52° ESE 21:26:53 10° NE
CZ-2C R/B 3.7 21:19:35 10° NNE 21:24:22 76° ESE 21:27:47 19° S
Cosmos 1733 Rocket 3.5 21:21:28 10° N 21:25:49 49° ENE 21:27:44 29° SE
Meteor 2-8 Rocket 4.4 21:25:01 20° S 21:29:17 67° E 21:35:20 10° NNE
OE (NEXTSAT) 4.1 21:26:49 10° W 21:30:07 89° N 21:32:08 22° E
SJ 16-02 2.2 21:27:23 10° SW 21:31:37 48° WNW 21:35:53 10° N
Meteor 1-18 Rocket 4.3 21:26:49 13° SSW 21:31:58 84° W 21:37:37 10° N
SAR-Lupe-4 4.2 21:29:31 10° NNE 21:32:53 37° E 21:33:21 35° ESE
Cosmos 1627 Rocket 4.5 21:27:38 10° N 21:33:53 87° W 21:38:05 23° S
Iridium 45 4.4 21:33:06 40° SSE 21:34:11 67° E 21:37:38 10° N
Cosmos 2278 4.0 21:31:44 10° SW 21:37:21 68° WNW 21:43:02 10° NNE
Cosmos 2292 Rocket 3.1 21:34:29 10° NNW 21:37:26 54° W 21:38:15 38° SSW
Cosmos 1862 Rocket 3.8 21:37:31 33° SSE 21:39:13 54° E 21:43:37 10° NNE
Cosmos 2360 Rocket 3.1 21:40:42 26° SE 21:41:58 29° ESE 21:46:45 10° NE
BREEZE M DEB (TANK) 4.2 21:37:58 10° WNW 21:42:36 65° SSW 21:55:47 17° SE
Cosmos 1726 4.0 21:42:03 10° NNE 21:44:32 17° ENE 21:45:09 16° E
Meteor 2-15 4.4 21:41:00 22° S 21:45:02 81° E 21:51:08 10° N
Cosmos 2263 Rocket 2.7 21:40:45 10° NW 21:46:08 50° WSW 21:49:11 24° S
NOSS 2-1 (C) 2.7 21:46:44 27° SW 21:48:21 88° WNW 21:51:35 10° NE
SPOT 5 3.8 21:45:43 20° SSW 21:49:09 47° W 21:54:07 10° NNW
Terra 2.1 21:47:56 28° S 21:50:22 63° W 21:55:06 10° NNW
Cosmos 1441 Rocket 3.2 21:51:04 48° SE 21:51:38 55° E 21:55:17 10° NNE
Resurs 01 Rocket 4.4 21:51:04 10° W 21:51:50 10° W 21:52:37 10° WNW
Cosmos 1346 Rocket 2.9 21:50:23 29° SSW 21:52:17 73° W 21:56:20 10° N
SAR-Lupe-1 3.9 21:50:23 10° NNE 21:53:58 79° ESE 21:54:47 51° S
Cosmos 2279 Rocket 3.9 21:53:29 27° S 21:57:04 78° E 22:03:17 10° N
NOSS 2-1 (D) 3.0 21:56:58 23° SW 21:58:50 67° NW 22:02:02 10° NE
Cosmos 990 Rocket 4.1 21:57:53 35° SSE 21:59:54 57° ESE 22:05:03 10° NNE
Cosmos 1680 Rocket 4.2 21:56:05 10° N 22:01:09 44° ENE 22:03:26 28° ESE
USA 215 3.7 21:55:26 10° ENE 22:01:28 38° SE 22:03:42 30° S
Iridium 2 3.5 21:59:56 10° N 22:03:42 84° E 22:04:23 58° SSE
Cosmos 1066 Rocket 4.2 22:05:06 33° S 22:07:41 71° E 22:13:21 10° NNE
Cosmos 1818 4.3 22:03:56 10° NNW 22:09:13 46° NE 22:12:08 24° ESE
Iridium 4 Rocket 3.9 22:08:07 10° N 22:12:31 43° E 22:13:44 36° ESE
Cosmos 1898 Rocket 3.8 22:11:50 40° SSE 22:13:16 51° ESE 22:18:25 10° NNE
Cosmos 1980 Rocket 4.3 22:08:40 10° WSW 22:13:21 26° NW 22:18:05 10° N
SL-24 R/B - RUBIN 2 4.3 22:10:20 10° NW 22:14:29 42° WSW 22:15:32 36° SSW
ISS -2.5 22:12:02 10° WNW 22:14:21 30° WSW 22:14:21 30° WSW
Okean 1-7 3.3 22:17:25 46° SE 22:18:03 51° E 22:22:18 10° NNE
Iridium 51 3.9 22:21:00 68° E 22:21:00 68° E 22:24:32 10° N
Cosmos 2322 Rocket 2.1 22:18:01 27° SSW 22:21:12 89° ESE 22:26:51 10° NNE
Cosmos 2180 Rocket 4.4 22:21:19 32° S 22:24:22 87° W 22:30:33 10° N
Okean 3 3.9 22:25:02 44° ESE 22:25:20 45° E 22:29:24 10° NNE
Cosmos 1844 Rocket 2.7 22:20:18 10° NNW 22:25:55 76° ENE 22:27:57 41° SE
Cosmos 2333 Rocket 2.8 22:25:18 35° SE 22:26:08 37° ESE 22:31:18 10° NE
Cosmos 1805 3.3 22:24:04 10° NNW 22:27:57 68° W 22:28:28 59° SW
BREEZE-M DEB (TANK) 2.6 22:29:22 10° WNW 22:31:53 50° SW 22:31:53 50° SW
H-2A R/B 4.3 22:28:42 10° NNE 22:32:20 34° E 22:32:20 34° E
ARIANE 5 R/B 4.1 22:31:11 22° SW 22:32:49 28° W 22:36:42 10° NW
ATLAS 2AS CENTAUR R/B 4.0 22:25:35 10° WSW 22:32:58 45° NW 22:40:07 10° NNE
Meteor 1-23 Rocket 4.4 22:34:01 42° SSE 22:35:51 61° E 22:41:35 10° NNE
ATLAS CENTAUR R/B 2.2 22:31:25 10° NNW 22:36:12 53° NE 22:37:49 35° ESE
USA 267 4.0 22:30:55 10° E 22:37:12 51° NNE 22:43:29 10° NW
Cosmos 1733 3.8 22:37:25 10° NNW 22:41:02 44° W 22:41:23 43° WSW
Cosmos 1766 3.1 22:39:11 10° N 22:43:08 88° W 22:43:23 79° S
Cosmos 2219 Rocket 2.7 22:44:47 38° SE 22:45:28 39° ESE 22:50:39 10° NE
Cosmos 1703 Rocket 3.5 22:48:16 59° SSW 22:49:03 81° W 22:53:31 10° N
Cosmos 1844 3.7 22:43:49 10° NNW 22:49:39 85° WSW 22:51:27 47° SSE
Cosmos 372 Rocket 4.0 22:51:17 51° SE 22:52:04 57° ESE 22:57:08 10° NNE
Meteor 1-4 Rocket 4.0 22:50:34 10° NW 22:53:33 27° W 22:53:35 27° W
ATLAS 3B R/B 3.4 22:51:02 10° NW 22:57:58 44° WSW 23:00:39 33° SSW
Cosmos 1707 3.7 23:00:36 37° E 23:00:36 37° E 23:03:52 10° NNE
SL-16 R/B 3.5 22:55:43 10° WSW 23:00:56 37° NW 23:06:11 10° NNE
Cosmos 1655 Rocket 4.1 22:55:44 10° NNW 23:01:53 65° W 23:04:10 39° SSW
Cosmos 1782 Rocket 3.4 23:00:02 10° N 23:04:24 79° W 23:04:50 70° SSW
ERS-2 2.6 23:03:49 10° NNE 23:06:52 51° ENE 23:06:52 51° ENE
CZ-4C R/B 3.3 23:01:13 10° NW 23:08:18 63° NE 23:14:17 20° ESE
NOSS 3-1 (C) 4.1 23:01:36 10° NW 23:09:04 82° NE 23:14:03 29° SE
Cosmos 1238 Rocket 4.5 23:10:19 10° NNE 23:11:57 18° ENE 23:11:57 18° ENE
Gblst 52 Del rocket 4.4 23:07:35 10° WSW 23:14:04 77° NNW 23:19:49 10° ENE
Cosmos 2237 Rocket 3.9 23:14:56 18° ESE 23:15:27 18° E 23:19:13 10° ENE
COSMOS 2428 2.9 23:17:54 47° SE 23:18:48 52° ESE 23:24:19 10° NE
Cosmos 1470 2.7 23:15:18 10° N 23:19:01 81° NNW 23:19:01 81° NNW
Cosmos 1726 3.3 23:16:18 10° NNW 23:19:26 33° W 23:19:26 33° W
Cosmos 1300 Rocket 3.4 23:16:10 10° N 23:20:33 82° E 23:20:51 75° SE
ALOS 2 2.5 23:22:00 70° SSW 23:22:21 75° WSW 23:26:46 10° NNW
Cosmos 2242 Rocket 4.2 23:21:24 42° WSW 23:22:21 49° WNW 23:26:47 10° N
Cosmos 2151 Rocket 4.3 23:19:10 10° N 23:23:21 40° ENE 23:23:57 38° E
Cosmos 1937 Rocket 4.0 23:22:46 35° SW 23:24:45 56° WNW 23:29:58 10° NNE
Cosmos 2360 Rocket 3.0 23:22:25 23° WSW 23:25:43 47° WNW 23:31:11 10° NNE
Cosmos 1242 Rocket 3.2 23:22:55 10° N 23:26:07 49° NE 23:26:07 49° NE
Okean 2 Rocket 3.5 23:23:02 10° N 23:27:29 51° ENE 23:28:05 48° ESE
Cosmos 405 Rocket 4.3 23:28:20 24° E 23:28:20 24° E 23:31:01 10° NE
In-Cosmos 22 4.2 23:29:31 52° SSE 23:30:45 68° E 23:36:13 10° NNE
Cosmos 2333 4.3 23:29:02 38° SW 23:31:09 68° WNW 23:36:48 10° NNE
Cosmos 1437 Rocket 4.3 23:30:04 10° NNE 23:33:13 24° ENE 23:33:33 24° E
Cosmos 1867 3.5 23:33:44 56° S 23:34:37 66° ESE 23:40:04 10° NE
Cosmos 1908 4.0 23:31:14 10° N 23:34:48 41° ENE 23:34:48 41° ENE
Meteor 1-21 4.2 23:34:35 51° S 23:36:06 81° E 23:41:57 10° NNE
Cosmos 1626 2.9 23:37:36 43° ENE 23:37:36 43° ENE 23:40:38 10° NNE
Cosmos 1842 4.3 23:38:57 35° W 23:39:13 35° WNW 23:42:49 10° N
Cosmos 1953 3.6 23:40:42 10° N 23:44:18 31° ENE 23:44:46 30° E
USA 215 3.4 23:38:14 10° NE 23:44:46 74° NNW 23:51:00 12° WSW
Cosmos 2278 Rocket 2.9 23:40:31 10° NNW 23:46:03 50° ENE 23:48:51 27° ESE
Cosmos 1674 2.7 23:50:45 72° NNE 23:50:45 72° NNE 23:54:11 10° N
Cosmos 1818 4.4 23:47:48 10° NW 23:52:38 33° WSW 23:52:45 33° WSW
Sich 1 Rocket 3.5 23:49:23 10° NNW 23:53:46 67° W 23:54:00 65° WSW
ADEOS Rocket 2.9 23:52:27 49° SSW 23:53:50 66° WSW 23:59:49 10° NNW
